Theta_e
349 350 349 353 354 355 354 353 352 350 348 347 347 347 345 342 345 343 338 338 346 349 348 348 350 350 349 348 347 352 350 351 353 351 353 353 350 352 344 349 350 351 350
352 350 349 352 353 353 352 353 351 349 347 347 348 348 345 346 345 345 339 336 340 347 349 351 350 350 349 347 352 352 351 354 354 355 354 350 351 352 350 349 350 350 350
350 351 351 351 351 353 352 352 350 349 349 349 348 347 347 346 346 346 343 338 342 340 344 350 350 349 351 349 349 352 356 354 355 354 353 350 350 351 352 348 350 351 349
350 353 351 351 352 350 351 351 350 349 349 349 348 346 346 347 345 342 338 337 337 334 335 349 350 348 350 348 352 354 355 356 354 354 352 352 352 349 348 349 350 350 349
351 353 351 350 353 351 349 351 350 349 349 348 347 348 347 348 346 343 345 346 341 340 339 341 346 345 349 351 355 356 355 353 354 355 354 354 353 353 350 350 349 347 348
345 354 351 350 351 352 351 351 352 350 349 348 349 347 347 347 347 347 348 347 347 347 345 345 346 350 351 354 355 356 354 353 355 356 354 353 351 349 349 347 347 346 346
350 352 351 350 351 351 352 352 353 353 351 349 349 347 346 344 345 346 347 346 347 344 345 349 347 350 355 354 355 353 354 353 352 352 348 350 350 348 348 349 349 347 346
352 352 351 351 349 350 352 353 351 353 353 348 348 347 347 346 345 345 348 348 349 347 348 349 353 354 354 354 353 354 353 351 352 348 346 347 346 344 344 346 348 345 345
352 351 351 350 348 349 352 354 353 354 351 348 349 348 346 348 345 346 348 348 347 350 354 354 354 354 354 353 354 349 347 347 344 344 344 338 341 338 344 342 341 344 345
352 352 350 350 349 350 350 353 354 353 351 348 347 348 346 347 349 348 346 346 347 350 351 354 354 354 354 352 347 345 344 341 337 336 335 334 334 333 336 338 337 336 342
353 352 351 351 350 352 351 351 351 354 351 350 346 347 346 347 345 343 345 345 349 351 353 356 354 351 348 345 344 343 340 338 336 336 333 333 332 331 331 332 331 338 337
350 350 351 351 350 353 353 353 352 354 351 349 348 346 348 350 348 345 343 350 346 350 355 353 349 347 345 345 341 339 336 336 334 332 331 329 328 330 329 327 327 334 333
349 350 349 350 350 351 355 354 355 354 352 344 350 350 350 349 343 341 349 348 348 352 352 349 347 344 343 340 337 335 335 335 334 332 330 327 328 327 328 326 326 326 328
350 350 350 349 351 350 351 353 353 352 349 343 344 347 348 343 345 351 350 354 354 352 349 346 344 342 340 338 335 335 334 333 332 332 329 327 327 327 328 327 328 328 328
350 349 350 349 350 351 351 352 352 352 345 342 342 341 341 338 343 350 355 354 354 349 345 342 344 341 339 336 336 334 333 322 318 319 319 318 316 315 319 323 325 325 326
350 350 350 350 351 354 353 352 354 352 345 341 340 339 338 345 353 355 354 353 350 346 343 344 342 339 337 336 335 333 329 323 316 317 320 324 323 322 321 312 314 320 323
348 350 351 352 353 355 353 353 353 351 348 346 342 342 341 354 355 354 353 352 346 343 344 342 339 336 335 335 335 333 331 327 329 327 328 328 328 324 322 319 315 317 316
347 352 352 353 356 356 355 355 354 353 352 351 350 350 349 357 356 353 351 348 344 343 343 340 336 333 333 332 332 330 330 330 329 329 331 328 324 323 326 320 319 315 313
348 352 353 355 356 356 357 355 355 354 357 357 358 357 357 356 355 351 352 347 344 344 343 339 335 330 331 327 325 325 328 326 326 325 326 321 323 322 323 322 320 318 318
348 352 353 355 356 356 356 360 358 358 358 358 357 357 358 358 355 352 350 346 342 343 340 336 335 323 329 324 326 327 326 326 325 323 321 314 312 314 322 322 321 318 318
347 351 354 356 356 357 357 361 362 360 362 356 356 358 358 356 355 351 349 348 344 342 338 335 333 326 326 323 324 325 325 326 325 323 321 317 313 311 319 319 318 320 319
346 346 353 354 358 358 359 361 362 361 361 362 360 359 358 356 353 351 348 346 343 339 337 335 332 327 321 322 322 323 325 326 323 322 319 315 313 310 309 310 312 314 315
344 345 349 353 360 359 359 364 361 363 362 365 363 361 359 356 353 350 348 345 342 339 335 332 330 326 320 317 321 321 322 324 325 326 322 317 313 309 309 309 313 314 316
346 344 342 351 359 361 360 361 367 366 367 365 360 358 357 353 352 350 347 344 341 337 333 330 327 324 321 316 320 320 320 322 323 325 322 317 313 315 315 314 314 316 315
346 338 339 347 357 362 362 364 368 370 369 365 361 357 356 354 352 350 347 344 342 338 334 332 329 325 324 316 315 320 319 320 322 322 318 314 314 315 316 317 316 316 317
350 352 351 354 357 361 364 365 370 370 369 365 361 358 355 353 351 349 348 345 342 339 336 333 331 325 322 320 311 317 319 320 321 319 318 317 315 315 317 318 316 317 318
Wind_Speed
19 25 28 31 34 31 30 27 28 26 28 25 24 21 21 21 17 14 20 16 12 7 6 4 7 8 9 12 15 15 21 20 15 12 17 4 1 9 10 13 14 20 21
11 18 23 26 29 31 27 29 28 26 26 26 25 23 21 20 17 14 18 17 17 12 8 4 8 8 11 13 13 18 19 14 16 8 7 3 1 16 11 14 21 22 27
7 14 12 25 27 30 29 29 27 29 27 23 20 18 16 18 16 17 18 21 18 16 11 7 11 11 11 15 15 17 12 11 13 10 3 2 1 5 10 17 15 21 26
11 20 27 24 26 28 28 26 24 28 29 25 22 24 22 18 22 19 16 20 18 18 15 10 12 10 12 15 15 11 9 9 10 7 6 1 1 3 2 11 21 24 22
20 20 23 31 28 30 29 27 24 25 27 28 25 23 21 17 21 19 16 15 16 16 15 17 15 12 14 11 12 5 7 6 7 6 5 3 4 4 2 3 10 23 21
13 11 26 26 26 26 26 28 26 24 24 26 25 26 24 18 16 16 16 15 13 12 12 13 14 9 10 9 4 4 4 4 5 3 5 7 3 4 6 4 6 15 18
12 25 20 24 27 28 28 29 27 26 23 23 23 24 22 23 19 16 17 18 14 14 14 11 10 11 7 5 2 2 4 4 5 8 10 7 10 9 9 8 4 6 9
19 19 15 21 29 28 30 27 28 25 25 23 23 21 21 21 23 19 16 16 11 11 8 10 11 7 6 4 1 7 6 4 5 6 9 13 13 9 6 7 11 3 3
20 21 22 28 31 31 32 32 30 26 24 19 20 18 18 20 20 17 12 11 10 9 7 11 8 6 2 6 9 7 7 11 8 5 8 14 13 14 5 8 8 4 3
22 23 23 28 29 29 33 32 29 27 26 21 20 18 17 19 16 17 13 11 10 12 8 8 7 10 8 7 12 10 9 13 13 13 13 15 16 18 19 14 15 12 6
25 22 20 30 32 31 31 30 29 24 24 18 19 16 19 16 16 15 11 7 4 8 9 11 12 11 9 12 12 12 12 15 12 13 15 17 15 15 16 15 18 15 24
23 20 22 30 31 31 30 31 27 27 25 22 21 19 20 20 15 14 12 5 3 5 10 13 14 12 9 11 16 16 15 15 15 12 13 17 17 18 16 16 16 16 19
20 22 18 23 27 28 30 29 31 26 24 24 24 19 22 19 17 14 10 12 9 12 14 13 12 12 12 15 16 17 16 15 14 12 13 14 15 16 14 13 13 13 12
20 16 18 16 27 29 30 31 30 31 24 26 28 24 20 19 17 14 10 12 13 15 11 11 14 15 15 16 16 18 15 13 11 10 12 14 14 12 12 13 16 17 18
19 19 18 16 23 26 28 32 30 34 30 28 27 25 22 21 14 16 16 15 15 13 13 14 15 16 17 15 14 17 13 14 18 18 18 17 15 14 13 12 13 16 22
23 20 19 15 23 27 30 31 31 37 35 34 31 28 26 17 22 21 16 17 15 14 17 15 17 17 17 16 15 17 15 13 16 18 18 18 17 16 16 14 13 13 15
19 15 19 18 27 29 34 31 34 37 36 32 32 29 26 22 23 21 19 17 19 18 17 16 15 18 18 16 18 13 13 13 13 13 15 12 10 10 12 13 13 14 14
11 18 17 23 28 31 32 34 36 34 35 32 29 27 27 29 24 22 22 21 20 19 19 18 16 17 18 16 17 16 16 11 12 10 15 12 11 10 6 9 11 12 11
15 22 30 30 29 32 34 37 33 33 31 30 32 33 31 28 25 25 25 22 22 20 21 19 15 15 20 18 18 17 17 15 13 11 8 6 8 7 9 10 8 7 6
20 27 31 31 33 32 37 34 31 31 30 33 34 32 31 29 29 28 26 23 23 22 21 17 13 16 23 22 19 17 16 14 12 9 8 6 5 8 8 7 7 6 4
20 32 33 31 32 35 35 29 29 29 32 35 33 31 29 28 27 27 25 23 24 23 21 19 16 16 24 25 20 18 17 16 12 13 12 8 6 7 8 7 8 9 6
9 17 28 29 33 39 35 29 29 31 35 34 34 33 31 28 28 28 27 25 27 26 26 23 19 17 24 26 23 17 17 16 18 16 14 11 8 7 8 6 7 7 4
9 14 10 22 32 39 40 31 31 33 35 34 33 33 31 29 29 30 31 30 29 30 30 27 24 22 23 26 26 21 16 14 16 22 18 13 9 9 7 8 9 4 1
4 24 16 8 21 36 38 38 39 39 37 34 30 31 32 31 31 31 31 30 31 31 30 29 27 25 25 28 30 26 20 14 11 13 23 16 9 9 10 9 11 8 4
14 13 17 12 31 35 34 33 37 39 36 34 30 30 29 32 32 30 31 32 34 37 34 33 33 32 31 34 36 33 27 19 15 22 21 18 17 15 14 15 15 14 11
4 14 28 33 37 34 35 36 39 41 36 31 29 29 28 27 28 28 28 32 30 34 32 31 32 34 31 28 33 35 31 25 22 24 24 23 21 20 21 21 21 21 20
Wind_Direction
157 148 150 149 155 162 173 181 182 183 183 185 185 195 203 192 209 223 207 207 197 204 244 299 348 346 340 332 343 344 335 337 351 352 2 84 284 34 76 70 61 87 97
182 132 142 145 155 165 174 182 183 180 187 188 188 191 191 194 209 214 217 218 213 212 224 282 295 302 319 334 337 337 334 339 8 358 333 357 301 35 65 64 71 88 95
207 144 139 159 157 161 173 182 185 185 190 192 193 195 204 211 207 227 227 209 214 221 229 254 283 294 312 320 323 334 343 337 354 30 52 5 339 55 81 79 98 89 91
182 161 181 167 170 171 174 179 189 192 192 191 189 195 192 199 207 214 200 215 224 229 238 244 264 280 294 308 321 328 348 354 352 17 34 94 237 104 107 87 88 92 95
173 172 171 167 168 166 172 182 186 193 197 199 202 199 198 203 199 209 210 215 222 229 237 241 252 265 292 301 312 324 345 357 356 21 15 29 38 97 158 119 107 84 100
186 102 146 171 156 160 167 179 184 189 194 197 202 205 200 197 197 204 211 215 217 218 239 233 243 258 282 300 299 301 339 19 39 35 24 359 353 17 80 97 93 104 91
144 151 183 158 160 163 168 177 181 185 193 198 200 199 206 206 206 205 215 210 211 217 233 235 231 243 265 271 257 336 78 82 66 50 36 45 101 78 87 87 142 136 112
151 164 169 165 163 169 171 172 179 182 191 193 196 202 204 205 209 209 209 223 229 211 234 205 227 231 246 231 169 116 93 66 113 92 70 65 62 45 65 88 108 95 91
159 165 172 164 172 172 167 173 177 182 186 191 185 191 196 200 201 201 203 195 202 208 214 201 206 228 124 129 134 123 103 105 86 77 88 64 77 67 84 89 81 125 152
169 163 166 169 169 168 168 172 174 177 180 184 182 181 184 183 193 182 192 212 211 210 201 198 177 131 123 130 132 116 112 99 85 81 81 78 76 73 70 83 68 55 134
157 165 164 169 173 162 166 172 175 178 178 182 180 183 172 170 176 183 188 192 220 224 187 155 136 126 111 125 126 119 115 100 101 86 79 77 75 79 73 74 66 95 124
157 163 166 166 168 163 164 167 166 181 176 173 169 168 165 177 182 182 169 159 138 181 160 136 133 125 134 141 120 117 107 103 95 90 94 81 84 85 77 74 71 99 121
149 157 154 162 165 161 160 162 167 176 181 176 172 166 165 178 179 170 169 150 185 176 144 146 148 150 144 129 124 117 114 112 111 109 97 91 93 82 82 80 74 80 112
159 158 154 164 161 165 163 165 166 176 178 181 186 184 182 180 177 178 167 164 171 150 157 156 144 142 137 131 128 127 128 120 115 105 100 99 94 84 78 79 69 75 87
162 161 163 164 159 161 162 168 167 173 177 182 187 190 185 184 209 178 166 160 160 158 162 150 145 147 140 139 137 138 131 117 111 108 103 96 90 85 86 90 79 85 93
167 171 164 158 162 161 164 166 160 171 180 181 185 187 184 188 175 167 166 168 163 161 154 155 155 157 151 150 148 143 131 124 121 120 110 99 87 83 74 74 76 80 91
159 159 161 163 163 162 166 167 169 171 176 178 188 194 188 186 179 173 171 171 165 161 156 164 165 161 153 156 156 154 145 131 139 143 126 114 101 102 93 78 86 80 72
153 155 161 160 162 161 163 170 176 172 179 184 193 191 189 185 177 171 171 168 165 167 168 171 170 165 160 156 155 154 149 147 140 130 172 135 119 95 118 114 90 83 88
157 160 161 159 154 159 164 171 170 171 177 174 180 180 185 184 178 173 175 172 174 171 177 178 179 178 163 158 156 159 156 147 136 131 135 140 142 147 122 133 117 110 121
157 158 160 159 158 164 168 165 168 169 177 175 179 185 185 184 179 178 176 175 173 175 180 181 191 178 168 165 163 167 164 154 150 148 146 133 155 167 158 150 161 157 142
158 155 158 160 166 166 170 162 165 174 174 186 185 186 188 186 185 178 178 178 177 177 182 181 187 184 180 178 176 170 168 174 178 183 178 181 178 172 180 191 190 184 202
76 141 162 165 166 168 170 169 173 175 179 178 182 186 188 185 184 180 180 185 177 181 178 179 185 191 189 190 190 185 184 192 197 194 192 188 185 185 182 183 170 174 210
111 75 71 174 168 171 176 174 179 178 179 179 177 180 186 184 186 181 181 181 185 186 180 185 190 193 195 196 198 199 197 197 201 214 207 191 189 181 174 181 183 209 283
342 170 188 219 198 178 182 181 176 178 171 171 174 177 180 177 182 181 183 182 187 186 186 192 197 201 200 200 203 205 205 205 202 199 192 196 193 187 188 182 195 197 217
342 310 291 257 204 188 181 177 173 170 171 172 174 177 178 176 176 183 186 192 199 201 195 201 204 201 206 207 205 206 204 200 195 177 181 191 202 207 209 212 210 226 218
226 248 266 237 196 185 177 177 177 176 171 171 175 177 178 180 180 183 189 203 208 210 216 218 219 216 223 212 210 210 210 205 192 187 197 210 217 219 222 227 224 216 212